Location: Gorze? G�rny
(49.8500°N, 19.5000°E)
Time: 13:02:38
(UTC+00:00)

Cosmos 2184 Rocket - Pass Details

Date: 13 May 2021
Orbit: 958 x 1003 km, 82.9° (Epoch: 22 June)

Event Time Altitude Azimuth Distance (km) Brightness Sun altitude
Rises 20:12:58 0° 348° (NNW) 3,685 8.3 -14.4°
Reaches altitude 10° 20:15:30 10° 347° (NNW) 2,727 7.5 -14.6°
Maximum altitude 20:21:42 72° 265° (W) 1,016 4.2 -15.2°
Enters shadow 20:26:44 16° 183° (S) 2,295 5.5 -15.6°
